Regional Weather Roundup
Issued by NWS Little Rock, AR

Home | Current Version | Previous Version | Graphics & Text | Print | Product List | Glossary On
Versions: 1 2 3 4 5 6 7 8 9 10 11 12 13 14 15 16 17 18 19 20 21 22 23 24 25 26 27 28 29 30 31 32 33 34 35 36 37 38 39 40 41 42 43 44 45
000
ASUS44 KLZK 190300
RWRLZK
ARKANSAS STATE WEATHER ROUNDUP
NATIONAL WEATHER SERVICE LITTLE ROCK AR
ISSUED BY NATIONAL WEATHER SERVICE MEMPHIS TN
1000 PM CDT MON SEP 18 2017

NOTE: "FAIR" INDICATES FEW OR NO CLOUDS BELOW 12,000 FEET WITH NO
SIGNIFICANT WEATHER AND/OR OBSTRUCTIONS TO VISIBILITY.

ARZ001-003-010-029-190400-
NORTHWEST ARKANSAS

CITY           SKY/WX    TMP DP  RH WIND       PRES   REMARKS
FORT SMITH     CLEAR     77  68  73 SE3       29.93R
HARRISON       CLEAR     68  67  96 SE5       30.01R
BENTONVILLE    CLEAR     71  68  90 SE3       30.01R
SILOAM SPGS    PTCLDY    69  67  93 E3        29.99S
HIGHFILL       CLEAR     70  67  90 CALM      29.99S
$$

ARZ004-005-016-190400-
NORTH CENTRAL ARKANSAS

CITY           SKY/WX    TMP DP  RH WIND       PRES   REMARKS
BATESVILLE     CLOUDY   N/A N/A N/A CALM      29.98S
FLIPPIN        CLEAR     69  68  96 CALM      29.99S
MTN HOME       CLEAR     71  71 100 CALM      29.98S
$$

ARZ040-041-190400-
WEST CENTRAL ARKANSAS

CITY           SKY/WX    TMP DP  RH WIND       PRES   REMARKS
MOUNT IDA      CLEAR     74  63  68 CALM      29.95R
$$

ARZ017-025-026-028-190400-
NORTHEAST ARKANSAS

CITY           SKY/WX    TMP DP  RH WIND       PRES   REMARKS
JONESBORO      LGT RAIN  74  74 100 CALM      29.96S
NEWPORT        LGT RAIN  73  70  90 VRB5      29.96F
BLYTHEVILLE    MOCLDY    74  70  87 S3        29.96S
$$

ARZ022-033-042-044-190400-
CENTRAL ARKANSAS

CITY           SKY/WX    TMP DP  RH WIND       PRES   REMARKS
LITTLE ROCK    PTCLDY    75  73  93 CALM      29.97R
JACKSONVILLE   MOCLDY    75  71  87 NE9       29.97R
SEARCY         CLEAR     73  68  84 CALM      29.99F
HOT SPRINGS    CLEAR     78  67  68 CALM      29.97R
RUSSELLVILLE   CLEAR     78  71  79 E5        29.94R
$$

ARZ036-190400-
EAST ARKANSAS

CITY           SKY/WX    TMP DP  RH WIND       PRES   REMARKS
WEST MEMPHIS   PTCLDY    73  73 100 CALM      29.97R
$$

ARZ050-070-073-190400-
SOUTHWEST ARKANSAS

CITY           SKY/WX    TMP DP  RH WIND       PRES   REMARKS
TEXARKANA      CLOUDY    79  68  69 SE5       29.96R
EL DORADO      CLEAR     76  74  93 CALM      29.97R
DEQUEEN        CLEAR     71  71 100 CALM      29.94R
$$

ARZ056-057-069-190400-
SOUTHEAST ARKANSAS

CITY           SKY/WX    TMP DP  RH WIND       PRES   REMARKS
PINE BLUFF     CLEAR     75  72  90 CALM      29.97R
STUTTGART      CLEAR     75  71  87 SE7       29.97S
MONTICELLO     CLEAR     78  74  87 SE3       29.97R
$$





USA.gov is the U.S. government's official web portal to all federal, state and local government web resources and services.